User: anonymous   Login
Location: Unspecified
(0.0000°N, 0.0000°E)
Time: 12:22:04
(UTC+00:00)
Language:

FASTSAT-HSV01 (USA 220) - Orbit

View from above orbital plane
View from above orbital plane
View from above satellite
View from above satellite

Ground track
Ground track

The orbit data is extracted from the following two-line orbital elements,

1 37225U 10062D   11112.90350526 0.00000250  00000-0  35740-4 0    07
2 37225  71.9618 161.1230 0017024  34.5423 325.4576 14.76516580    07
Epoch (UTC): 22 April 2011 21:41:02
Eccentricity: 0.0017024
inclination: 71.9618°
perigee height: 628 km
apogee height: 652 km
right ascension of ascending node: 161.1230°
argument of perigee: 34.5423°
revolutions per day: 14.76516580
mean anomaly at epoch: 325.4576°
orbit number at epoch: 0

The dashed part of the orbit path shows where the satellite is in the earth's shadow,  

DLR